Location: Roland
(31.1349°N, 85.4372°W)
Time: 04:45:47
(UTC+00:00)

Courier 1B - Pass Details

Date: 26 April 2021
Orbit: 962 x 1209 km, 28.3° (Epoch: 07 May)

Event Time Altitude Azimuth Distance (km) Brightness Sun altitude
Rises 21:03:53 0° 272° (W) 3,687 11.4 40.2°
Reaches altitude 10° 21:06:58 10° 260° (W) 2,713 11.1 39.5°
Maximum altitude 21:12:20 27° 205° (SSW) 1,735 9.6 38.4°
Drops below altitude 10° 21:17:39 10° 149° (SSE) 2,682 9.7 37.3°
Sets 21:20:41 0° 137° (SE) 3,638 10.2 36.6°
